EW6430 Weather Reports


time (UTC)temp
C
wind
direction
speed
KPH
gust
KPH
rain 1hr
cm
rain 24hr
cm
rain mn
cm
humidity
%
barometer
mb
20260509200927 8 17 0.0 0.0 0.00 0.00 0.00 90 1018.8
20260509200415 8 17 0.0 0.0 0.00 0.00 0.00 90 1018.8
20260509200053 8 17 0.0 0.0 0.00 0.00 0.00 90 1019.1
20260509195902 8 17 0.0 0.0 0.00 0.00 0.00 89 1018.7
20260509194844 8 17 0.0 0.0 0.00 0.00 0.00 89 1018.7
20260509194511 8 17 0.0 0.0 0.00 0.00 0.00 89 1019.0
20260509194332 8 17 0.0 0.0 0.00 0.00 0.00 89 1018.6
20260509193830 8 17 0.0 0.0 0.00 0.00 0.00 88 1018.7
20260509193331 8 17 0.0 0.0 0.00 0.00 0.00 87 1018.7
20260509193042 8 17 0.0 0.0 0.00 0.00 0.00 87 1019.0
20260509192829 8 17 0.0 0.0 0.00 0.00 0.00 87 1018.7
20260509192331 8 17 0.0 0.0 0.00 0.00 0.00 86 1018.7
20260509191822 8 17 0.0 0.0 0.00 0.00 0.00 86 1018.7
20260509191558 8 17 0.0 0.0 0.00 0.00 0.00 85 1019.0
20260509191310 9 17 0.0 3.2 0.00 0.00 0.00 85 1018.7
20260509190758 9 17 0.0 3.2 0.00 0.00 0.00 84 1018.6
20260509190243 9 18 0.0 0.0 0.00 0.00 0.00 83 1018.6
20260509190014 9 18 0.0 0.0 0.00 0.00 0.00 82 1018.9
20260509184712 10 18 0.0 0.0 0.00 0.00 0.00 80 1018.5
20260509184544 10 18 0.0 0.0 0.00 0.00 0.00 79 1018.9
20260509184156 11 18 0.0 0.0 0.00 0.00 0.00 79 1018.5
20260509183121 11 18 0.0 0.0 0.00 0.00 0.00 76 1018.5
20260509183056 11 18 0.0 0.0 0.00 0.00 0.00 76 1018.9
20260509182055 12 18 0.0 0.0 0.00 0.00 0.00 74 1018.5
20260509181516 11 18 0.0 0.0 0.00 0.00 0.00 73 1018.8
20260509181026 12 18 0.0 3.2 0.00 0.00 0.00 73 1018.3
20260509180516 12 18 1.6 3.2 0.00 0.00 0.00 73 1018.3
20260509180142 12 18 0.0 6.4 0.00 0.00 0.00 73 1018.7
20260509180002 12 18 1.6 6.4 0.00 0.00 0.00 73 1018.3
20260509175445 12 42 0.0 4.8 0.00 0.00 0.00 73 1018.3
20260509174658 12 53 0.0 4.8 0.00 0.00 0.00 73 1018.7
20260509174417 12 54 1.6 4.8 0.00 0.00 0.00 73 1018.2
20260509173904 12 28 1.6 4.8 0.00 0.00 0.00 73 1018.3
20260509173350 12 29 1.6 4.8 0.00 0.00 0.00 73 1018.5
20260509173018 12 29 1.6 4.8 0.00 0.00 0.00 73 1018.8
20260509172838 12 39 1.6 4.8 0.00 0.00 0.00 73 1018.3
20260509172327 12 40 3.2 6.4 0.00 0.00 0.00 72 1018.3
20260509171810 12 41 1.6 6.4 0.00 0.00 0.00 72 1018.3
20260509171545 12 59 3.2 6.4 0.00 0.00 0.00 71 1018.7
20260509171256 12 52 1.6 4.8 0.00 0.00 0.00 71 1018.3
20260509170745 13 53 3.2 6.4 0.00 0.00 0.00 70 1018.2
20260509170229 13 54 1.6 6.4 0.00 0.00 0.00 70 1018.2
20260509170108 12 58 1.6 6.4 0.00 0.00 0.00 70 1018.6
20260509165716 13 343 1.6 4.8 0.00 0.00 0.00 70 1018.2
20260509165205 13 344 1.6 8.0 0.00 0.00 0.00 70 1018.2
20260509164649 13 348 3.2 11.3 0.00 0.00 0.00 70 1018.1
20260509164520 12 348 1.6 9.7 0.00 0.00 0.00 69 1018.6
20260509164133 13 5 4.8 8.0 0.00 0.00 0.00 69 1018.2
20260509163619 13 13 4.8 8.0 0.00 0.00 0.00 69 1018.1
20260509163103 13 62 3.2 8.0 0.00 0.00 0.00 69 1018.1
20260509163039 12 71 3.2 8.0 0.00 0.00 0.00 69 1018.6
20260509162551 13 32 3.2 8.0 0.00 0.00 0.00 70 1018.2
20260509161530 13 18 1.6 8.0 0.00 0.00 0.00 70 1018.2
20260509161507 12 26 3.2 8.0 0.00 0.00 0.00 70 1018.7
20260509161019 13 10 3.2 9.7 0.00 0.00 0.00 70 1018.3
20260509160501 13 40 3.2 9.7 0.00 0.00 0.00 70 1018.5
20260509160024 12 71 3.2 8.0 0.00 0.00 0.00 70 1018.8
20260509155947 13 40 3.2 8.0 0.00 0.00 0.00 70 1018.5
20260509155432 13 41 4.8 14.5 0.00 0.00 0.00 70 1018.6
20260509154921 13 60 4.8 14.5 0.00 0.00 0.00 69 1018.5
20260509154548 13 74 3.2 9.7 0.00 0.00 0.00 69 1018.8
20260509153853 13 5 4.8 11.3 0.00 0.00 0.00 67 1018.5
20260509153338 13 355 4.8 9.7 0.00 0.00 0.00 67 1018.3
20260509153004 13 344 3.2 9.7 0.00 0.00 0.00 66 1018.7
20260509152824 13 13 3.2 9.7 0.00 0.00 0.00 66 1018.3
20260509152309 13 66 3.2 9.7 0.00 0.00 0.00 66 1018.3
20260509151806 13 348 3.2 9.7 0.00 0.00 0.00 65 1018.2
20260509151538 13 63 3.2 9.7 0.00 0.00 0.00 66 1018.7
20260509151254 13 20 3.2 12.9 0.00 0.00 0.00 65 1018.2
20260509150225 13 30 4.8 11.3 0.00 0.00 0.00 64 1018.3
20260509150056 13 18 3.2 9.7 0.00 0.00 0.00 65 1018.8
20260509145709 13 68 3.2 11.3 0.00 0.00 0.00 64 1018.3
20260509145154 13 63 3.2 12.9 0.00 0.00 0.00 65 1018.3
20260509144644 13 318 6.4 12.9 0.00 0.00 0.00 64 1018.3
20260509144528 13 324 4.8 12.9 0.00 0.00 0.00 64 1018.7
20260509144133 13 341 6.4 14.5 0.00 0.00 0.00 64 1018.3
20260509143630 13 330 4.8 14.5 0.00 0.00 0.00 63 1018.3
20260509143158 13 308 1.6 12.9 0.00 0.00 0.00 64 1018.7
20260509143119 13 355 4.8 12.9 0.00 0.00 0.00 64 1018.3
20260509142611 13 314 4.8 12.9 0.00 0.00 0.00 63 1018.2
20260509142059 13 33 4.8 12.9 0.00 0.00 0.00 64 1018.2
20260509141634 13 304 3.2 12.9 0.00 0.00 0.00 64 1018.7
20260509141557 13 339 4.8 9.7 0.00 0.00 0.00 64 1018.2
20260509141046 13 259 3.2 12.9 0.00 0.00 0.00 64 1018.2
20260509140539 13 340 4.8 12.9 0.00 0.00 0.00 65 1018.3
20260509140112 13 308 3.2 9.7 0.00 0.00 0.00 65 1018.7
20260509140034 13 316 3.2 11.3 0.00 0.00 0.00 64 1018.3
20260509135526 13 332 3.2 14.5 0.00 0.00 0.00 65 1018.3
20260509135027 13 312 3.2 14.5 0.00 0.00 0.00 64 1018.3
20260509134626 13 335 1.6 8.0 0.00 0.00 0.00 65 1018.8
20260509134516 13 305 3.2 9.7 0.00 0.00 0.00 64 1018.5
20260509134011 13 13 3.2 11.3 0.00 0.00 0.00 64 1018.5
20260509133511 13 5 3.2 12.9 0.00 0.00 0.00 64 1018.6
20260509133042 13 302 1.6 12.9 0.00 0.00 0.00 64 1018.8
20260509133004 13 11 3.2 12.9 0.00 0.00 0.00 64 1018.6
20260509132458 13 24 3.2 12.9 0.00 0.00 0.00 63 1018.5
20260509131950 13 287 4.8 12.9 0.00 0.00 0.00 63 1018.5
20260509131525 13 10 1.6 12.9 0.00 0.00 0.00 64 1018.9
20260509131441 13 10 4.8 12.9 0.00 0.00 0.00 63 1018.5
20260509130934 13 41 3.2 9.7 0.00 0.00 0.00 63 1018.6
20260509130422 13 42 3.2 9.7 0.00 0.00 0.00 63 1018.6
20260509130154 13 340 3.2 9.7 0.00 0.00 0.00 64 1018.9
20260509125409 13 28 4.8 14.5 0.00 0.00 0.00 64 1018.5
20260509124909 13 304 4.8 14.5 0.00 0.00 0.00 62 1018.6
20260509124544 13 308 4.8 14.5 0.00 0.03 0.00 63 1018.9
20260509124404 13 29 6.4 14.5 0.00 0.00 0.00 63 1018.6
20260509123906 13 287 6.4 14.5 0.00 0.00 0.00 62 1018.6
20260509123354 13 321 4.8 12.9 0.00 0.00 0.00 62 1018.6
20260509123023 13 16 6.4 12.9 0.00 0.03 0.00 61 1019.0
20260509122838 13 351 4.8 12.9 0.00 0.00 0.00 61 1018.7
20260509122328 13 308 6.4 14.5 0.00 0.00 0.00 63 1018.7
20260509121817 13 340 4.8 14.5 0.00 0.00 0.00 63 1018.7
20260509121549 13 307 4.8 12.9 0.00 0.03 0.00 64 1019.0
20260509121305 13 303 3.2 12.9 0.00 0.03 0.00 64 1018.7
20260509120749 13 22 4.8 12.9 0.00 0.03 0.00 64 1018.7
20260509120237 13 59 4.8 9.7 0.00 0.03 0.00 63 1018.7
20260509120009 13 30 4.8 11.3 0.00 0.03 0.00 64 1019.1
20260509115729 13 33 4.8 11.3 0.00 0.03 0.00 63 1018.7
20260509115221 13 21 4.8 9.7 0.00 0.03 0.00 63 1018.7
20260509114705 13 317 4.8 11.3 0.00 0.03 0.00 63 1018.7
20260509114543 13 10 3.2 11.3 0.00 0.03 0.00 63 1019.0
20260509114147 13 338 3.2 11.3 0.00 0.03 0.00 62 1018.7
20260509113633 13 337 3.2 11.3 0.00 0.03 0.00 63 1018.8
20260509113120 13 5 3.2 11.3 0.00 0.03 0.00 65 1018.8
20260509113057 13 5 4.8 11.3 0.00 0.03 0.00 65 1019.1
20260509112605 13 342 4.8 12.9 0.00 0.03 0.00 68 1018.8
20260509112055 13 317 4.8 12.9 0.00 0.03 0.00 67 1018.8
20260509111511 13 328 4.8 9.7 0.00 0.03 0.00 68 1019.2
20260509111022 13 316 4.8 11.3 0.00 0.03 0.00 69 1018.9
20260509110509 13 303 4.8 12.9 0.00 0.03 0.00 67 1018.9
20260509110033 12 315 6.4 12.9 0.00 0.03 0.00 67 1019.3
20260509105955 13 335 4.8 12.9 0.00 0.03 0.00 67 1018.9
20260509105444 13 313 6.4 14.5 0.00 0.03 0.00 66 1018.9
20260509104928 13 5 6.4 17.7 0.00 0.03 0.00 65 1018.9
20260509104551 13 330 6.4 17.7 0.00 0.03 0.00 66 1019.2
20260509104414 13 0 4.8 17.7 0.00 0.03 0.00 66 1018.9
20260509103347 13 60 3.2 8.0 0.00 0.03 0.00 66 1018.9
20260509103013 13 65 1.6 8.0 0.00 0.03 0.00 68 1019.3
20260509102832 13 49 3.2 8.0 0.00 0.03 0.00 69 1019.0
20260509101813 12 33 3.2 12.9 0.00 0.03 0.00 69 1019.0
20260509101645 12 65 4.8 11.3 0.00 0.03 0.00 70 1019.4
20260509101302 12 310 3.2 12.9 0.00 0.03 0.00 70 1019.1
20260509100007 12 333 4.8 12.9 0.00 0.03 0.00 70 1019.5
20260509095721 12 305 3.2 14.5 0.00 0.03 0.00 71 1019.2
20260509095208 12 5 4.8 14.5 0.00 0.03 0.00 69 1019.2
20260509094653 13 338 4.8 14.5 0.00 0.03 0.00 69 1019.1
20260509094524 12 32 3.2 14.5 0.00 0.03 0.00 69 1019.4
20260509093626 13 5 3.2 14.5 0.00 0.03 0.00 68 1019.0
20260509093109 12 348 3.2 9.7 0.00 0.03 0.00 69 1019.0
20260509093045 12 348 1.6 8.0 0.00 0.03 0.00 69 1019.4
20260509092557 12 0 4.8 9.7 0.00 0.03 0.00 68 1019.0
20260509092044 12 307 4.8 9.7 0.00 0.03 0.00 69 1019.1
20260509091527 12 295 4.8 9.7 0.00 0.03 0.00 70 1019.1
20260509091501 12 296 3.2 9.7 0.00 0.03 0.00 70 1019.5
20260509091012 12 323 4.8 9.7 0.00 0.03 0.00 70 1019.2
20260509090507 12 300 4.8 12.9 0.00 0.03 0.00 70 1019.2
20260509090033 12 338 4.8 12.9 0.00 0.03 0.00 70 1019.5
20260509085955 12 311 4.8 12.9 0.00 0.03 0.00 70 1019.2
20260509084551 12 277 4.8 9.7 0.00 0.03 0.00 70 1019.5
20260509084409 12 309 3.2 11.3 0.00 0.03 0.00 70 1019.2
20260509083855 12 311 3.2 11.3 0.00 0.03 0.00 70 1019.2
20260509083341 12 12 3.2 8.0 0.00 0.03 0.00 71 1019.1
20260509083007 12 20 1.6 6.4 0.00 0.03 0.00 73 1019.5
20260509082827 12 304 3.2 6.4 0.00 0.03 0.00 73 1019.1
20260509081757 12 293 1.6 8.0 0.00 0.03 0.00 73 1019.0
20260509081530 11 296 3.2 4.8 0.00 0.03 0.00 74 1019.3
20260509081241 12 319 1.6 6.4 0.00 0.03 0.00 74 1018.9
20260509080728 12 355 3.2 6.4 0.00 0.03 0.00 74 1018.9
20260509080150 11 259 1.6 6.4 0.00 0.03 0.00 74 1019.3
20260509075702 12 311 3.2 6.4 0.00 0.03 0.00 73 1018.9
20260509074643 12 302 3.2 11.3 0.00 0.03 0.00 73 1018.9
20260509074523 12 304 3.2 8.0 0.00 0.03 0.00 74 1019.2
20260509074144 12 299 1.6 8.0 0.00 0.03 0.00 75 1018.9
20260509073108 12 317 3.2 6.4 0.00 0.03 0.00 74 1018.8
20260509073043 11 285 1.6 6.4 0.00 0.03 0.00 74 1019.2
20260509072554 12 74 3.2 8.0 0.00 0.03 0.00 78 1018.9
20260509072036 11 344 3.2 8.0 0.00 0.03 0.00 80 1018.9
20260509071608 11 307 3.2 6.4 0.00 0.03 0.00 80 1019.3
20260509071522 11 300 3.2 6.4 0.00 0.03 0.00 80 1018.9
20260509071021 11 312 4.8 9.7 0.00 0.03 0.00 80 1018.8
20260509070454 11 306 4.8 11.3 0.00 0.03 0.00 78 1018.9
20260509070015 11 308 3.2 12.9 0.00 0.03 0.00 80 1019.2
20260509065938 11 350 4.8 12.9 0.00 0.03 0.00 80 1018.8
20260509065429 11 313 3.2 12.9 0.00 0.03 0.00 82 1018.8
20260509064919 11 344 3.2 11.3 0.00 0.03 0.00 80 1018.8
20260509064558 11 307 1.6 9.7 0.00 0.03 0.00 80 1019.1
20260509064407 11 304 4.8 11.3 0.00 0.03 0.00 80 1018.7
20260509063859 11 330 4.8 11.3 0.00 0.03 0.00 80 1018.8
20260509063042 10 338 4.8 9.7 0.00 0.03 0.00 80 1019.1
20260509062857 11 323 4.8 9.7 0.00 0.03 0.00 80 1018.7
20260509062347 11 301 3.2 9.7 0.00 0.03 0.00 80 1018.7
20260509061846 11 304 3.2 9.7 0.00 0.03 0.00 81 1018.7
20260509061520 10 313 1.6 9.7 0.00 0.03 0.00 81 1019.0
20260509061343 10 305 3.2 9.7 0.00 0.03 0.00 81 1018.7
20260509060838 10 313 3.2 9.7 0.00 0.03 0.00 81 1018.6
20260509060327 10 342 3.2 8.0 0.00 0.03 0.00 83 1018.6
20260509060056 10 344 0.0 8.0 0.00 0.03 0.00 83 1019.0
20260509055817 10 340 4.8 11.3 0.00 0.03 0.00 83 1018.6
20260509055306 10 298 4.8 11.3 0.00 0.03 0.00 84 1018.7
20260509054753 10 328 3.2 9.7 0.00 0.03 0.00 84 1018.7
20260509054621 10 355 3.2 9.7 0.00 0.05 0.00 84 1019.0
20260509054239 10 326 3.2 8.0 0.00 0.03 0.00 85 1018.7
20260509053726 10 341 1.6 8.0 0.00 0.03 0.00 85 1018.6
20260509053215 10 329 3.2 11.3 0.00 0.03 0.00 85 1018.7
20260509053051 10 329 1.6 11.3 0.00 0.05 0.00 85 1019.1
20260509052712 10 336 4.8 11.3 0.00 0.05 0.00 85 1018.6
20260509052159 10 331 4.8 9.7 0.00 0.05 0.00 86 1018.7
20260509051647 10 321 4.8 9.7 0.00 0.05 0.00 87 1018.7
20260509051530 10 323 4.8 9.7 0.00 0.05 0.00 87 1019.1
20260509051146 10 309 3.2 6.4 0.00 0.05 0.00 88 1018.7
20260509050639 10 315 3.2 8.0 0.00 0.05 0.00 88 1018.7
20260509050128 10 336 3.2 8.0 0.00 0.05 0.00 88 1018.6
20260509050109 9 336 3.2 8.0 0.00 0.05 0.00 88 1019.0
20260509045613 10 310 4.8 8.0 0.00 0.05 0.00 89 1018.6
20260509045107 10 298 3.2 8.0 0.00 0.05 0.00 89 1018.6
20260509044603 10 320 3.2 6.4 0.00 0.05 0.00 91 1018.5
20260509044538 9 327 3.2 6.4 0.00 0.23 0.00 91 1018.9
20260509044050 9 302 3.2 11.3 0.00 0.08 0.00 91 1018.6
20260509043539 9 308 3.2 11.3 0.00 0.10 0.00 92 1018.5
20260509043106 9 309 1.6 11.3 0.00 0.23 0.00 92 1018.9
20260509042507 9 327 1.6 6.4 0.00 0.18 0.00 93 1018.5
20260509041949 8 292 1.6 4.8 0.00 0.20 0.00 93 1018.5
20260509041514 8 340 0.0 3.2 0.00 0.23 0.00 93 1018.9
20260509041438 8 340 1.6 4.8 0.00 0.23 0.00 93 1018.5
20260509040405 8 355 0.0 0.0 0.00 0.23 0.00 93 1018.3
20260509040038 8 355 0.0 0.0 0.00 0.23 0.00 93 1018.8
20260509035849 8 355 0.0 0.0 0.00 0.23 0.00 93 1018.3
20260509035338 8 355 0.0 0.0 0.00 0.23 0.00 93 1018.3
20260509034530 8 355 0.0 0.0 0.00 0.23 0.00 93 1018.8
20260509033816 8 355 0.0 1.6 0.00 0.23 0.00 93 1018.5
20260509033305 8 355 0.0 1.6 0.00 0.23 0.00 93 1018.3
20260509033034 8 355 0.0 1.6 0.00 0.23 0.00 93 1018.8
20260509032244 8 355 0.0 3.2 0.00 0.23 0.00 92 1018.3
20260509031507 8 355 0.0 3.2 0.00 0.23 0.00 92 1018.8
20260509031224 8 355 1.6 3.2 0.00 0.23 0.00 92 1018.3
20260509030709 8 355 1.6 3.2 0.00 0.23 0.00 92 1018.3
20260509030154 8 355 1.6 3.2 0.00 0.23 0.00 92 1018.5
20260509030026 8 355 0.0 3.2 0.00 0.23 0.00 92 1018.8
20260509025640 8 355 0.0 3.2 0.00 0.23 0.00 91 1018.3
20260509025127 8 355 0.0 0.0 0.00 0.23 0.00 91 1018.2
20260509024616 8 355 0.0 0.0 0.00 0.23 0.00 91 1018.2
20260509024552 8 355 0.0 0.0 0.00 0.23 0.00 91 1018.7
20260509024106 8 355 0.0 0.0 0.00 0.23 0.00 91 1018.2
20260509023552 8 355 0.0 3.2 0.00 0.23 0.00 90 1018.2
20260509023043 8 355 0.0 3.2 0.00 0.23 0.00 90 1018.2
20260509023016 8 355 0.0 0.0 0.00 0.23 0.00 90 1018.7
20260509022529 9 355 1.6 3.2 0.00 0.23 0.00 89 1018.3
20260509022016 9 355 0.0 3.2 0.00 0.23 0.00 89 1018.3
20260509021542 8 355 0.0 1.6 0.00 0.23 0.00 89 1018.7
20260509021504 9 355 0.0 1.6 0.00 0.23 0.00 89 1018.2
20260509020950 9 355 0.0 1.6 0.00 0.23 0.00 89 1018.2
20260509020441 9 355 0.0 1.6 0.00 0.23 0.00 88 1018.3
20260509020002 9 355 0.0 1.6 0.00 0.23 0.00 88 1018.7
20260509015925 9 355 0.0 1.6 0.00 0.23 0.00 88 1018.3
20260509015412 9 355 0.0 3.2 0.00 0.23 0.00 87 1018.3
20260509014859 10 355 0.0 3.2 0.00 0.23 0.00 86 1018.3
20260509014524 9 355 0.0 1.6 0.00 0.25 0.00 86 1018.7
20260509014344 10 355 0.0 1.6 0.00 0.23 0.00 86 1018.2
20260509013316 10 355 0.0 1.6 0.00 0.23 0.00 86 1018.3
20260509013052 9 355 0.0 1.6 0.00 0.25 0.00 85 1018.7
20260509012251 10 355 1.6 3.2 0.00 0.23 0.00 85 1018.3
20260509011739 10 355 1.6 3.2 0.00 0.23 0.00 85 1018.2
20260509011506 10 355 1.6 3.2 0.00 0.25 0.00 85 1018.7
20260509010719 10 355 1.6 3.2 0.00 0.23 0.00 85 1018.2
20260509010208 10 355 1.6 4.8 0.00 0.25 0.00 85 1018.2
20260509010033 10 355 0.0 3.2 0.00 0.25 0.00 85 1018.7
20260509005640 10 355 1.6 4.8 0.00 0.25 0.00 85 1018.2
20260509005127 10 355 1.6 4.8 0.00 0.25 0.00 84 1018.2
20260509004615 10 355 1.6 4.8 0.00 0.25 0.00 85 1018.2
20260509004606 10 355 1.6 4.8 0.00 0.36 0.00 85 1018.7
20260509003544 10 355 1.6 3.2 0.00 0.25 0.00 85 1018.3
20260509003030 10 355 1.6 4.8 0.00 0.25 0.00 85 1018.3
20260509003004 10 355 0.0 4.8 0.00 0.36 0.00 85 1018.8
20260509002514 10 355 1.6 4.8 0.00 0.25 0.00 85 1018.5
20260509001525 10 355 0.0 1.6 0.00 0.36 0.00 85 1018.9
20260509001444 10 355 0.0 1.6 0.00 0.28 0.00 85 1018.6
20260509000410 10 355 0.0 1.6 0.00 0.33 0.00 85 1018.6
20260509000138 10 355 0.0 3.2 0.00 0.36 0.00 85 1019.0
20260508235857 10 355 0.0 3.2 0.00 0.38 0.00 85 1018.7
20260508235333 10 355 0.0 4.8 0.00 0.48 0.00 85 1018.7
20260508234818 10 355 0.0 4.8 0.00 0.53 0.00 85 1018.7
20260508234546 10 355 0.0 4.8 0.00 0.61 0.00 85 1019.0
20260508234304 10 355 0.0 4.8 0.00 0.58 0.00 85 1018.7
20260508233236 10 355 1.6 6.4 0.00 0.61 0.00 85 1018.7
20260508233007 10 355 1.6 6.4 0.00 0.61 0.00 85 1019.0
20260508232723 10 355 1.6 6.4 0.00 0.61 0.00 85 1018.7
20260508232206 10 349 1.6 4.8 0.00 0.61 0.00 85 1018.7
20260508231657 10 344 1.6 6.4 0.00 0.61 0.00 85 1018.8
20260508231540 10 342 0.0 6.4 0.00 0.61 0.00 85 1019.1
20260508231158 10 35 1.6 6.4 0.00 0.61 0.00 85 1018.7
20260508230644 10 18 3.2 4.8 0.00 0.61 0.00 84 1018.7
20260508230008 10 20 1.6 6.4 0.00 0.61 0.00 84 1019.1
20260508225628 10 9 3.2 6.4 0.00 0.61 0.00 84 1018.7
20260508225114 10 5 3.2 8.0 0.00 0.61 0.00 84 1018.8
20260508224650 10 14 1.6 8.0 0.00 0.61 0.00 84 1019.2
20260508224611 10 38 3.2 8.0 0.00 0.61 0.00 84 1018.9
20260508223120 10 360 3.2 8.0 0.00 0.61 0.00 84 1019.1
20260508223041 10 19 3.2 8.0 0.00 0.61 0.00 84 1018.8
20260508222531 10 10 3.2 12.9 0.00 0.61 0.00 84 1018.8
20260508222025 10 25 4.8 12.9 0.00 0.61 0.00 84 1018.7
20260508221700 10 5 4.8 12.9 0.00 0.61 0.00 85 1019.0
20260508221519 10 327 4.8 8.0 0.00 0.61 0.00 85 1018.7
20260508221010 10 355 4.8 11.3 0.00 0.61 0.00 85 1018.8
20260508220511 10 355 3.2 11.3 0.00 0.61 0.00 85 1018.7
20260508220044 10 72 1.6 9.7 0.00 0.61 0.00 86 1018.9
20260508220007 10 303 3.2 9.7 0.00 0.61 0.00 86 1018.6
20260508215444 10 30 3.2 9.7 0.00 0.61 0.61 86 1018.6
20260508214929 10 355 1.6 8.0 0.00 0.61 0.61 86 1018.5
20260508214613 10 5 0.0 8.0 0.00 0.61 0.61 86 1018.8
20260508214421 10 9 1.6 8.0 0.00 0.61 0.61 86 1018.5
20260508213859 10 321 3.2 9.7 0.00 0.61 0.61 86 1018.5
20260508213346 10 336 3.2 9.7 0.00 0.61 0.61 86 1018.5
20260508213016 10 329 1.6 6.4 0.00 0.61 0.61 86 1018.9
20260508212830 10 333 1.6 6.4 0.00 0.61 0.61 86 1018.5
20260508211534 10 303 0.0 6.4 0.00 0.61 0.61 86 1018.8
20260508211253 10 350 3.2 6.4 0.00 0.61 0.61 85 1018.6
20260508210744 11 350 3.2 8.0 0.00 0.61 0.61 85 1018.5
20260508210008 10 345 1.6 9.7 0.00 0.61 0.61 85 1018.8
20260508205723 11 350 3.2 9.7 0.00 0.61 0.61 85 1018.5
20260508205214 11 5 3.2 9.7 0.00 0.61 0.61 85 1018.6
20260508204706 11 355 1.6 6.4 0.00 0.61 0.61 85 1018.5
20260508204537 11 355 1.6 6.4 0.00 0.61 0.61 85 1018.8
20260508204153 11 355 1.6 6.4 0.00 0.61 0.61 85 1018.3
20260508203641 11 355 1.6 6.4 0.00 0.61 0.61 85 1018.2
20260508203134 11 5 3.2 8.0 0.00 0.61 0.61 84 1018.2
20260508203014 11 5 1.6 8.0 0.00 0.61 0.61 84 1018.6
20260508202618 11 333 3.2 6.4 0.00 0.61 0.61 84 1018.2
20260508202114 11 324 1.6 6.4 0.00 0.61 0.61 84 1018.2
20260508201611 11 0 1.6 4.8 0.00 0.61 0.61 84 1018.2
20260508201552 11 360 0.0 4.8 0.00 0.61 0.61 84 1018.6